星链-2704 (STARLINK-2704 )

导读 | 星芒AI

STARLINK-2704 是 SpaceX Starlink 项目中的一颗低轨通信卫星,属于第 27 批发射的星链卫星群。该卫星于 2023 年 4 月发射,运行在约 550 公里的轨道高度,旨在为全球用户提供高速互联网服务。它采用先进的相控阵天线和激光通信技术,支持高带宽、低延迟的数据传输。STARLINK-2704 与其他星链卫星协同工作,增强网络覆盖,特别是在偏远和网络基础设施薄弱的地区。该卫星系统由 SpaceX 自动化管理,具备自主避障能力,以确保运行安全和稳定性。

基本信息
目录编号:
48643
目录名称:
STARLINK-2704
国际标识:
2021-044F
轨道中心:
EARTH
卫星名称:
星链-2704
卫星全名:
星链-2704 (STARLINK-2704 )
卫星状态:
在轨 (已飞行1618 天)
发射日期:
2021-05-26 UTC
国别 :
美国 (US)
星等 :
--
轨道信息
数据来源 国际轨道数据 AOE轨道数据
星历时间 2025-10-30T14:34:17+0800
9小时前
查看轨道信息
2025-10-28T07:00:00+0800
2天前
查看轨道信息
半长轴 6925.361km 6925.35km
偏心率 0.000142 0.000154
轨道倾角 53.056° 53.053°
近地点辐角 79.495° 99.398°
升交点赤经 347.071° 357.467°
平近点角 280.620° 296.843°
近地点 546.242km 546.148km
远地点 548.21km 548.282km
周期 95.592分钟 95.592分钟
每日圈数 15.06396 15.063997
详细信息
固有亮度:
5
最大亮度:
2.5
卫星平台:
Starlink V1.0
覆盖范围:
全球
运营商:
太空探索技术公司
运营商所在国:
美国
制造商(研发单位):
太空探索技术公司
制造商所在国:
美国
使用方式:
暂无
卫星简介
星链(Starlink)计划是由太空探索技术公司(SpaceX)提出的一个巨型低轨卫星互联网星座项目,计划在2019年至2024年间在太空搭建由约1.2万颗卫星组成的“星链”网络,其中1584颗将部署在地球上空550千米处的近地轨道,并从2020年开始工作。该卫星仍在工作。
2D轨道图
3D轨道图
轨道高度分析图
轨道倾角分析图
轨道综合分析图
查看轨道综合分析图